Location: Brotuna
(46.2000°N, 22.6000°E)
Time: 22:35:04
(UTC+00:00)

ERS-1 Rocket - Pass Details

Date: 09 April 2020
Orbit: 754 x 757 km, 98.5° (Epoch: 29 May)

Event Time Altitude Azimuth Distance (km) Brightness Sun altitude
Exits shadow 20:47:01 36° 275° (W) 1,179 4.1 -31.0°
Drops below altitude 10° 20:51:14 10° 330° (NNW) 2,291 6.3 -31.4°
Sets 20:53:43 0° 339° (NNW) 3,220 7.3 -31.6°
